This is the latest recevied weather packets stored in our database for station/object PD2BVG. If no packets are shown the sender has not sent any weather packets the latest 1 day(s).
| Time | Temp. | Humidity | Pressure | Rain* | Wind** | Luminosity | Snow |
|---|---|---|---|---|---|---|---|
| 1777986958 | 14.44° C | 73% | 1011.2 hPa | 0 mm | 4.47 m/s, 323° | 737 W/m² | - |
| 1777986897 | 14.44° C | 73% | 1011.2 hPa | 0 mm | 4.47 m/s, 334° | 605 W/m² | - |
| 1777986837 | 14.44° C | 73% | 1011.2 hPa | 0 mm | 4.02 m/s, 1° | 758 W/m² | - |
| 1777986777 | 14.44° C | 73% | 1011.2 hPa | 0 mm | 4.47 m/s, 326° | 758 W/m² | - |
| 1777986717 | 14.44° C | 73% | 1011.3 hPa | 0 mm | 5.36 m/s, 329° | 630 W/m² | - |
| 1777986656 | 14.44° C | 72% | 1011.2 hPa | 0 mm | 5.36 m/s, 313° | 579 W/m² | - |
| 1777986603 | 14.44° C | 73% | 1011.2 hPa | 0 mm | 4.47 m/s, 344° | 616 W/m² | - |
| 1777986535 | 14.44° C | 73% | 1011.2 hPa | 0 mm | 4.47 m/s, 3° | 647 W/m² | - |
| 1777986471 | 14.44° C | 73% | 1011.2 hPa | 0 mm | 4.92 m/s, 23° | 710 W/m² | - |
| 1777986410 | 14.44° C | 74% | 1011.3 hPa | 0 mm | 4.92 m/s, 0° | 710 W/m² | - |
| 1777986348 | 13.89° C | 73% | 1011.2 hPa | 0 mm | 5.81 m/s, 336° | 640 W/m² | - |
| 1777986288 | 14.44° C | 73% | 1011.3 hPa | 0 mm | 5.36 m/s, 331° | 640 W/m² | - |
| 1777986228 | 14.44° C | 73% | 1011.2 hPa | 0 mm | 4.02 m/s, 340° | 624 W/m² | - |
| 1777986167 | 14.44° C | 72% | 1011.2 hPa | 0 mm | 5.36 m/s, 327° | 656 W/m² | - |
| 1777986105 | 14.44° C | 73% | 1011.3 hPa | 0 mm | 5.36 m/s, 358° | 703 W/m² | - |
| 1777986044 | 14.44° C | 73% | 1011.3 hPa | 0 mm | 4.92 m/s, 350° | 593 W/m² | - |
| 1777985984 | 14.44° C | 72% | 1011.2 hPa | 0 mm | 4.92 m/s, 334° | 556 W/m² | - |
| 1777985924 | 14.44° C | 73% | 1011.3 hPa | 0 mm | 4.47 m/s, 329° | 529 W/m² | - |
| 1777985863 | 14.44° C | 73% | 1011.3 hPa | 0 mm | 4.02 m/s, 320° | 543 W/m² | - |
| 1777985804 | 14.44° C | 72% | 1011.2 hPa | 0 mm | 4.92 m/s, 13° | 543 W/m² | - |
| 1777985740 | 14.44° C | 73% | 1011.4 hPa | 0 mm | 4.47 m/s, 336° | 591 W/m² | - |
| 1777985679 | 14.44° C | 73% | 1011.3 hPa | 0 mm | 4.47 m/s, 334° | 526 W/m² | - |
| 1777985618 | 14.44° C | 73% | 1011.3 hPa | 0 mm | 4.47 m/s, 334° | 563 W/m² | - |
| 1777985557 | 14.44° C | 73% | 1011.2 hPa | 0 mm | 4.02 m/s, 344° | 607 W/m² | - |
| 1777985496 | 14.44° C | 72% | 1011.3 hPa | 0 mm | 4.02 m/s, 345° | 545 W/m² | - |
* Rain latest hour (hover to see other rain measurements)
** Current wind speed in m/s (hover to see current wind gust speed)